COSMOS 2251 DEB, 33826

Orbit data source: Space-Track

COSMOS 2251 DEB, 33826 is space debris in LEO originally from a launch on Wed, 16 Jun 1993 UTC launched from the Plesetsk Missile And Space Complex (PKMTR). The debris from Iridium 33, an American commercial communications satellite, has been tracked extensively since its accidental collision with the defunct Russian satellite Cosmos 2251 in 2009. This event, occurring at high speed in low Earth orbit (LEO), generated thousands of pieces of space debris, significantly increasing the risk of further collisions. The Iridium 33 debris cloud has impacted space traffic management and orbital debris mitigation strategies, making it a subject of ongoing study in space situational awareness.

Loading next visibility...
Identifier
33826, 1993-036BT
Orbit
LEO
Country
Flag of CISCIS
Related business
Manufacturer
Unknown
Mission
Spacecraft
Bus & Motor
Unknown
Mass
Unknown
Launch date (UTC)
Icon of a cake. It is the launch day of the satellite!1993-06-16 (33 years ago)
Launch vehicle
Unknown
Launch site
Plesetsk Missile And Space Complex (PKMTR)
Object type
Payload
Rocket body
Debris
Shape & HBR
Unknown shape, 0.1 m
Radar Cross Section
Medium (>0.1 m² and <1 m²)

Expand to show TLE details & history
Last TLE update: 6 hours ago

TLE from 6 hours ago
0 COSMOS 2251 DEB
1 33826U 93036BT  26167.16043331  .00007126  00000-0  16097-2 0  9997
2 33826  74.0647  60.5967 0083036  59.9821  62.8227 14.54286281904628
Epoch: 2026-06-16T03:51Z
TLE epoch observation values (Epoch: 2026-06-16T03:51:01.437Z)
Latitude
53.27835°
Longitude
-103.97256°
Altitude
693.548 km
Speed
7.529 km/s
True Right ascension
14h 32m 52s
True Declination
53° 06' 43"
Sunlit
Object was in daylight at epoch
Visualization orbit readout
Latitude
Unknown
Longitude
Unknown
Altitude
Unknown
Speed
Unknown
Apparent Right ascension
Unknown
Apparent Declination
Unknown
Sunlit
N/A
Visualization observer readout
Local Sidereal Time
20:19:21
Azimuth
Unknown
Elevation
Unknown
Doppler factor
Unknown
Orbital elements
Apogee altitude
768.136 km
Perigee altitude
650.433 km
Semi-major axis
7,087.422 km
Eccentricity
0.0083
Inclination
74.0647°
RAAN
60.5967°
Arg. of periapsis
59.9821°
True anomaly
63.67317°
Mean anomaly
62.8227°
Eccentric anomaly
63.24754°
Mean motion
3.63757 °/min
Orbital period
98.97 mins
BSTAR
0.0016097
Loading maneuver chart data...
Computing Atmospheric mass density...
Loading historical data...
Loading historical data...
Loading historical data...
Loading historical data...
Loading historical data...
Loading historical data...
Loading historical data...

Documentation

Showing up to 5 results
|